Location: Observatory
(52.1446°N, 0.4624°W)
Time: 02:17:25
(UTC+01:00)

ISS - Pass Details

Date: 05 January 2018
Orbit: 402 x 408 km, 51.6° (Epoch: 16 July)

Event Time Altitude Azimuth Distance (km) Brightness Sun altitude
Exits shadow 05:19:04 34° 94° (E) 707 -2.1 -24.9°
Drops below altitude 10° 05:21:08 10° 84° (E) 1,501 0.1 -24.6°
Enters shadow 06:16:17 -71° 270° (W) 12,447 3.6 -16.3°
Maximum altitude 06:54:25 79° 188° (S) 432 -3.7 -10.8°
